Location: Brabourne
(51.1333°N, 1.0000°E)
Time: 05:52:52
(UTC+00:00)

NOSS 3-1 (A) - Pass Details

Date: 27 October 2021
Orbit: 721 x 1491 km, 63.4° (Epoch: 22 November)

Event Time Altitude Azimuth Distance (km) Brightness Sun altitude
Rises 17:24:43 0° 193° (SSW) 3,196 6.6 -7.8°
Reaches altitude 10° 17:27:06 10° 185° (S) 2,332 5.7 -8.1°
Maximum altitude 17:31:59 38° 118° (ESE) 1,289 3.8 -8.9°
Drops below altitude 10° 17:37:39 10° 53° (NE) 2,720 5.3 -9.8°
Enters shadow 17:38:24 - 51° (NE) 2,990 5.5 -9.9°
